Akron, CO

10:37 AM MDT on May 26, 2017 (GMT -0600)
Akron-Washington County

Weather History for KAKO - August, 2013

Change the Weather History Date:

Thursday, August 22, 2013

  Actual Average Record
Temperature  
Mean Temperature 74 °F 71 °F  
Max Temperature 87 °F 85 °F 98 °F (2003)
Min Temperature 61 °F 58 °F 44 °F (1966)
Degree Days  
Heating Degree Days 0    
Month to date heating degree days 2  
Cooling Degree Days 9    
Month to date cooling degree days 151  
Growing Degree Days 24 (Base 50)    
Moisture  
Dew Point 60 °F    
Average Humidity 68    
Maximum Humidity 100    
Minimum Humidity 35    
Precipitation  
Precipitation 0.00 in 0.06 in 1.55 in (2014)
Month to date precipitation 2.40 1.76  
Year to date precipitation 11.41 12.95  
Sea Level Pressure  
Sea Level Pressure 30.01 in    
Wind  
Wind Speed 9 mph (North)    
Max Wind Speed 16 mph    
Max Gust Speed 21 mph    
Visibility 9 miles    
Events      
T = Trace of Precipitation, MM = Missing Value Source: NWS Daily Summary

Daily Weather History Graph

Daily Weather History Graph

Search for Another Location

Airport or City:

Trip Planner

Search our weather history database for the weather conditions in past years. The results will help you decide how hot, cold, wet, or windy it might be!

Date:

Astronomy

Aug. 22, 2013 Rise Set
Actual Time 6:11 AM MDT 7:39 PM MDT
Civil Twilight 5:42 AM MDT 8:07 PM MDT
Nautical Twilight 5:08 AM MDT 8:42 PM MDT
Astronomical Twilight 4:31 AM MDT 9:18 PM MDT
Moon 8:24 PM MDT (8/22) 8:02 AM MDT (8/22)
Length of Visible Light 14h 25m
Length of Day
13h 28m
Waning Gibbous, 96% of the Moon is Illuminated
Aug 22
Waning Gibbous
Aug 28
Last Quarter
Sep 5
New
Sep 12
First Quarter
Sep 19
Full

Hourly Weather History & Observations

Time (MDT) Temp. Heat Index Dew Point Humidity Pressure Visibility Wind Dir Wind Speed Gust Speed Precip Events Conditions
12:53 AM 66.9 °F - 62.1 °F 84% 29.96 in 10.0 mi NE 9.2 mph - N/A   Clear
1:53 AM 66.0 °F - 63.0 °F 90% 29.96 in 9.0 mi North 8.1 mph - N/A   Clear
2:35 AM 64.4 °F - 64.4 °F 100% 30.15 in 7.0 mi NW 8.1 mph - N/A   Partly Cloudy
2:53 AM 64.9 °F - 63.0 °F 93% 29.97 in 7.0 mi NNW 8.1 mph - N/A   Scattered Clouds
3:53 AM 63.0 °F - 62.1 °F 97% 29.97 in 5.0 mi NW 6.9 mph - N/A   Clear
4:53 AM 61.0 °F - 61.0 °F 100% 29.99 in 4.0 mi WNW 5.8 mph - N/A   Clear
5:53 AM 61.0 °F - 60.1 °F 97% 30.01 in 5.0 mi WNW 12.7 mph - N/A   Clear
6:53 AM 61.0 °F - 60.1 °F 97% 30.05 in 5.0 mi WNW 12.7 mph - N/A   Scattered Clouds
7:53 AM 63.0 °F - 60.1 °F 90% 30.06 in 8.0 mi WNW 10.4 mph - N/A   Clear
8:53 AM 68.0 °F - 61.0 °F 78% 30.07 in 10.0 mi NNW 12.7 mph - N/A   Clear
9:53 AM 72.0 °F - 62.1 °F 71% 30.07 in 10.0 mi NW 13.8 mph - N/A   Clear
10:53 AM 75.9 °F - 61.0 °F 60% 30.06 in 10.0 mi NW 11.5 mph - N/A   Clear
11:53 AM 78.1 °F - 60.1 °F 54% 30.04 in 10.0 mi NW 10.4 mph 17.3 mph N/A   Clear
12:53 PM 79.0 °F - 59.0 °F 50% 30.03 in 10.0 mi WNW 11.5 mph - N/A   Clear
1:53 PM 82.9 °F 82.6 °F 57.9 °F 42% 30.00 in 10.0 mi Variable 6.9 mph - N/A   Clear
2:53 PM 84.9 °F 83.9 °F 57.0 °F 38% 29.98 in 10.0 mi North 9.2 mph - N/A   Clear
3:53 PM 86.0 °F 84.5 °F 55.0 °F 35% 29.96 in 10.0 mi ENE 10.4 mph 16.1 mph N/A   Clear
4:53 PM 86.0 °F 84.2 °F 54.0 °F 33% 29.95 in 10.0 mi ENE 5.8 mph - N/A   Clear
5:53 PM 82.0 °F 81.6 °F 55.9 °F 41% 29.96 in 10.0 mi East 12.7 mph - N/A   Clear
6:53 PM 77.0 °F - 60.1 °F 56% 29.99 in 10.0 mi East 12.7 mph - N/A   Clear
7:53 PM 73.9 °F - 60.1 °F 62% 30.00 in 10.0 mi SE 8.1 mph - N/A   Clear
8:53 PM 73.0 °F - 61.0 °F 66% 30.01 in 10.0 mi SE 8.1 mph - N/A   Partly Cloudy
9:53 PM 70.0 °F - 63.0 °F 78% 30.03 in 10.0 mi East 5.8 mph - N/A   Scattered Clouds
10:53 PM 68.0 °F - 63.0 °F 84% 30.04 in 10.0 mi ESE 6.9 mph - N/A   Clear
11:53 PM 66.9 °F - 64.0 °F 90% 30.04 in 9.0 mi SE 6.9 mph - N/A   Mostly Cloudy